Weather History for Aurora, CO

Change the Weather History Date:

Tuesday, February 12, 2013

  Actual Average Record
Temperature  
Mean Temperature 26 °F -  
Max Temperature 39 °F 43 °F 57 °F (2005)
Min Temperature 14 °F 21 °F -4 °F (2004)
Degree Days  
Heating Degree Days 38    
Moisture  
Dew Point 2 °F    
Average Humidity 45    
Maximum Humidity 86    
Minimum Humidity 12    
Precipitation  
Precipitation 0.00 in - - ()
Sea Level Pressure  
Sea Level Pressure 30.09 in    
Wind  
Wind Speed 7 mph (South)    
Max Wind Speed 10 mph    
Max Gust Speed -    
Visibility 10 miles    
Events      
Averages and records for this station are not official NWS values.
T = Trace of Precipitation, MM = Missing Value Source: NWS Daily Summary

Daily Weather History Graph

Daily Weather History Graph

Search for Another Location

Airport:

Trip Planner

Search our weather history database for the weather conditions in past years. The results will help you decide how hot, cold, wet, or windy it might be!

Date:

Astronomy

Feb. 12, 2013 Rise Set
Actual Time 6:54 AM MST 5:32 PM MST
Civil Twilight 6:27 AM MST 6:00 PM MST
Nautical Twilight 5:55 AM MST 6:31 PM MST
Astronomical Twilight 5:24 AM MST 7:03 PM MST
Moon 7:53 AM MST (2/12) 8:35 PM MST (2/12)
Length of Visible Light 11h 33m
Length of Day
10h 37m
Waxing Crescent, 8% of the Moon is Illuminated
Feb 12
Waxing Crescent
Feb 17
First Quarter
Feb 25
Full
Mar 4
Last Quarter
Mar 11
New

Hourly Weather History & Observations

Time (MST) Temp. Windchill Dew Point Humidity Pressure Visibility Wind Dir Wind Speed Gust Speed Precip Events Conditions
12:55 AM 15.8 °F 7.2 °F 12.2 °F 86% 30.11 in 10.0 mi SSW 5.8 mph - N/A   Partly Cloudy
1:55 AM 15.8 °F 4.2 °F 12.2 °F 86% 30.09 in 25.0 mi SSW 9.2 mph - N/A   Partly Cloudy
2:55 AM 17.6 °F 5.7 °F 12.2 °F 79% 30.09 in 25.0 mi South 10.4 mph - N/A   Partly Cloudy
3:55 AM 17.6 °F 5.7 °F 12.2 °F 79% 30.07 in 25.0 mi SSW 10.4 mph - N/A   Partly Cloudy
4:55 AM 15.8 °F 7.2 °F 12.2 °F 86% 30.11 in 25.0 mi SW 5.8 mph - N/A   Partly Cloudy
5:55 AM 14.0 °F 2.9 °F 8.6 °F 79% 30.14 in 25.0 mi SSW 8.1 mph - N/A   Partly Cloudy
6:55 AM 14.0 °F 2.0 °F 6.8 °F 73% 30.14 in 70.0 mi SSW 9.2 mph - N/A   Partly Cloudy
7:55 AM 17.6 °F 5.7 °F 8.6 °F 68% 30.12 in 70.0 mi SSW 10.4 mph - N/A   Scattered Clouds
8:55 AM 23.0 °F 12.4 °F 8.6 °F 54% 30.11 in 70.0 mi SSW 10.4 mph - N/A   Partly Cloudy
9:55 AM 28.4 °F 21.2 °F 3.2 °F 34% 30.09 in 70.0 mi SW 6.9 mph - N/A   Clear
10:55 AM 32.0 °F - -4.0 °F 21% 30.09 in 70.0 mi Calm Calm - N/A   Clear
11:55 AM 37.4 °F 33.8 °F -9.4 °F 13% 30.07 in 70.0 mi NE 4.6 mph - N/A   Clear
12:55 PM 37.4 °F 34.9 °F -9.4 °F 13% 30.07 in 70.0 mi NNE 3.5 mph - N/A   Partly Cloudy
1:55 PM 39.2 °F 35.9 °F -9.4 °F 12% 30.04 in 70.0 mi North 4.6 mph - N/A   Partly Cloudy
2:55 PM 39.2 °F 35.9 °F -9.4 °F 12% 30.04 in 70.0 mi NW 4.6 mph - N/A   Partly Cloudy
3:55 PM 39.2 °F 33.6 °F -5.8 °F 15% 30.04 in 70.0 mi NNE 8.1 mph - N/A   Partly Cloudy
4:55 PM 37.4 °F 32.1 °F -2.2 °F 19% 30.06 in 70.0 mi NNE 6.9 mph - N/A   Partly Cloudy
5:55 PM 32.0 °F - -2.2 °F 23% 30.10 in 25.0 mi ENE 2.3 mph - N/A   Partly Cloudy
6:55 PM 24.8 °F 15.3 °F 1.4 °F 36% 30.13 in 25.0 mi SE 9.2 mph - N/A   Partly Cloudy
7:55 PM 24.8 °F 15.3 °F 1.4 °F 36% 30.11 in 25.0 mi SSE 9.2 mph - N/A   Partly Cloudy
8:55 PM 24.8 °F 19.1 °F 1.4 °F 36% 30.09 in 25.0 mi SSW 4.6 mph - N/A   Partly Cloudy
9:55 PM 23.0 °F 13.1 °F 3.2 °F 43% 30.07 in 25.0 mi South 9.2 mph - N/A   Partly Cloudy
10:55 PM 21.2 °F 11.7 °F 3.2 °F 46% 30.06 in 25.0 mi South 8.1 mph - N/A   Partly Cloudy
11:55 PM 21.2 °F 13.6 °F 1.4 °F 42% 30.04 in 25.0 mi SSW 5.8 mph - N/A   Partly Cloudy